[Date Prev][Date Next][Thread Prev][Thread Next] - [Date Index][Thread Index][Author Index]

2 Line ISS Keps 3-7



ISS
1 25544U 98067A   05066.81469274  .00011572  00000-0  96805-4 0  9659
2 25544  51.6464  59.4740 0004281 163.4264 260.6877 15.70523892359744
----
Via the sarex mailing list at AMSAT.ORG courtesy of AMSAT-NA.
To unsubscribe, send "unsubscribe sarex" to Majordomo@amsat.org



AMSAT Top AMSAT Home